Retour au catalogue

THORAD AGENA D DEB

ActifPO
NORAD 4950·DEBRIS·🇺🇸 United States

Lancé Apr 8, 1970 depuis Vandenberg Space Force Base

Loading…

Prochains Passages (prochaines 24 heures)

TLE

FraisSource: Space-Track

Époque: Sep 14, 2026, 04:07 UTC

1 04950U 70025GL  26257.17165472  .00000194  00000-0  59304-3 0  9995
2 04950  99.8171 142.7115 0219689 174.5842 340.3040 13.10228406695159

Suivez THORAD AGENA D DEB en temps réel avec AllMySat

Download on the App Store